When you browse on this site, cookies collect data to enhance your experience and personalize the content and advertising you see.
Visit our Privacy Policy to learn more. By continuing to use the site, you agree to this use of cookies and data.
  • In Slovakia
  • List of Countries
  • For 7 days
  • Water Temperature
  • Weather Map
  • Weather Widgets
  • user-avatar
    Login

    Hourly Weather La Rioja

    Today, 10 December, Tuesday

    Time Temperature Precipitation Wind Pressure Humidity
    00:00 +29°C° 0 mm 1 mps 712 mmHg 36%
    01:00 +28°C° 0 mm 1 mps 712 mmHg 38%
    02:00 +27°C° 0 mm 2 mps 712 mmHg 41%
    03:00 +27°C° 0 mm 1 mps 712 mmHg 42%
    04:00 +26°C° 0 mm 1 mps 712 mmHg 44%
    05:00 +26°C° 0 mm 1 mps 712 mmHg 45%
    06:00 +27°C° 0 mm 2 mps 712 mmHg 42%
    07:00 +29°C° 0 mm 2 mps 713 mmHg 39%
    08:00 +30°C° 0 mm 2 mps 714 mmHg 36%
    09:00 +31°C° 0 mm 2 mps 713 mmHg 33%
    10:00 +34°C° 0 mm 3 mps 713 mmHg 30%
    11:00 +35°C° 0 mm 3 mps 713 mmHg 27%
    12:00 +36°C° 0 mm 3 mps 713 mmHg 25%
    13:00 +37°C° 0 mm 3 mps 712 mmHg 23%
    14:00 +38°C° 0 mm 3 mps 711 mmHg 21%
    15:00 +38°C° 0 mm 3 mps 711 mmHg 20%
    16:00 +38°C° 0 mm 3 mps 710 mmHg 19%
    17:00 +39°C° 0 mm 3 mps 709 mmHg 18%
    18:00 +37°C° 0 mm 3 mps 710 mmHg 20%
    19:00 +36°C° 0 mm 3 mps 710 mmHg 22%
    20:00 +35°C° 0 mm 2 mps 710 mmHg 24%
    21:00 +34°C° 0 mm 2 mps 710 mmHg 28%
    22:00 +32°C° 0 mm 2 mps 711 mmHg 31%
    23:00 +31°C° 0 mm 2 mps 711 mmHg 35%

    Tomorrow, 11 December, Wednesday

    Time Temperature Precipitation Wind Pressure Humidity
    00:00 +31°C° 0 mm 1 mps 710 mmHg 38%
    01:00 +30°C° 0 mm 1 mps 710 mmHg 40%
    02:00 +30°C° 0 mm 1 mps 709 mmHg 42%
    03:00 +29°C° 0 mm 1 mps 709 mmHg 43%
    04:00 +29°C° 0 mm 1 mps 709 mmHg 43%
    05:00 +28°C° 0 mm 1 mps 708 mmHg 43%
    06:00 +30°C° 0 mm 2 mps 709 mmHg 40%
    07:00 +31°C° 0 mm 2 mps 709 mmHg 36%
    08:00 +33°C° 0 mm 3 mps 709 mmHg 33%
    09:00 +35°C° 0 mm 2 mps 709 mmHg 31%
    10:00 +36°C° 0 mm 2 mps 709 mmHg 29%
    11:00 +37°C° 0 mm 2 mps 708 mmHg 27%
    12:00 +38°C° 0 mm 2 mps 708 mmHg 25%
    13:00 +39°C° 0 mm 2 mps 707 mmHg 23%
    14:00 +41°C° 0 mm 2 mps 706 mmHg 21%
    15:00 +42°C° 0 mm 3 mps 706 mmHg 20%
    16:00 +42°C° 0 mm 3 mps 705 mmHg 19%
    17:00 +42°C° 0 mm 4 mps 704 mmHg 19%
    18:00 +40°C° 0 mm 3 mps 705 mmHg 20%
    19:00 +39°C° 0 mm 3 mps 705 mmHg 22%
    20:00 +37°C° 0 mm 2 mps 706 mmHg 24%
    21:00 +37°C° 0 mm 3 mps 706 mmHg 25%
    22:00 +36°C° 0 mm 4 mps 707 mmHg 26%
    23:00 +35°C° 0 mm 5 mps 708 mmHg 27%

    Day after tomorrow, 12 December, Thursday

    Time Temperature Precipitation Wind Pressure Humidity
    00:00 +33°C° 0 mm 5 mps 708 mmHg 33%
    01:00 +30°C° 0 mm 4 mps 708 mmHg 39%
    02:00 +28°C° 0 mm 3 mps 709 mmHg 45%
    03:00 +28°C° 0 mm 3 mps 710 mmHg 47%
    04:00 +27°C° 0 mm 2 mps 710 mmHg 49%
    05:00 +27°C° 0 mm 1 mps 711 mmHg 51%
    06:00 +27°C° 0 mm 2 mps 712 mmHg 48%
    07:00 +28°C° 0 mm 3 mps 713 mmHg 45%
    08:00 +28°C° 0 mm 4 mps 714 mmHg 42%
    09:00 +29°C° 0 mm 4 mps 714 mmHg 39%
    10:00 +30°C° 0 mm 4 mps 714 mmHg 36%
    11:00 +32°C° 0 mm 4 mps 714 mmHg 33%
    12:00 +33°C° 0 mm 4 mps 713 mmHg 32%
    13:00 +33°C° 0 mm 4 mps 713 mmHg 31%
    14:00 +34°C° 0 mm 4 mps 712 mmHg 29%
    15:00 +34°C° 0 mm 4 mps 711 mmHg 28%
    16:00 +34°C° 0 mm 4 mps 711 mmHg 27%
    17:00 +34°C° 0 mm 4 mps 710 mmHg 26%
    18:00 +33°C° 0 mm 4 mps 711 mmHg 26%
    19:00 +32°C° 0 mm 4 mps 712 mmHg 26%
    20:00 +30°C° 0 mm 4 mps 712 mmHg 27%
    21:00 +29°C° 0 mm 3 mps 713 mmHg 27%
    22:00 +29°C° 0 mm 3 mps 713 mmHg 27%
    23:00 +28°C° 0 mm 2 mps 713 mmHg 28%

    13 December, Friday

    Time Temperature Precipitation Wind Pressure Humidity
    00:00 +27°C° 0 mm 2 mps 713 mmHg 29%
    01:00 +27°C° 0 mm 1 mps 713 mmHg 30%
    02:00 +26°C° 0 mm 1 mps 713 mmHg 31%
    03:00 +26°C° 0 mm 1 mps 712 mmHg 32%
    04:00 +25°C° 0 mm 2 mps 712 mmHg 33%
    05:00 +25°C° 0 mm 2 mps 712 mmHg 33%
    06:00 +26°C° 0 mm 2 mps 713 mmHg 29%
    07:00 +27°C° 0 mm 3 mps 713 mmHg 25%
    08:00 +28°C° 0 mm 4 mps 714 mmHg 21%
    09:00 +29°C° 0 mm 4 mps 714 mmHg 20%
    10:00 +30°C° 0 mm 4 mps 713 mmHg 19%
    11:00 +32°C° 0 mm 4 mps 713 mmHg 18%
    12:00 +33°C° 0 mm 4 mps 712 mmHg 18%
    13:00 +34°C° 0 mm 4 mps 712 mmHg 18%
    14:00 +35°C° 0 mm 4 mps 711 mmHg 19%
    15:00 +36°C° 0 mm 5 mps 710 mmHg 20%
    16:00 +36°C° 0 mm 5 mps 709 mmHg 22%
    17:00 +36°C° 0 mm 6 mps 709 mmHg 23%
    18:00 +34°C° 0 mm 5 mps 709 mmHg 29%
    19:00 +33°C° 0 mm 5 mps 709 mmHg 34%
    20:00 +30°C° 0 mm 5 mps 710 mmHg 40%
    21:00 +29°C° 0 mm 4 mps 710 mmHg 42%
    22:00 +29°C° 0 mm 4 mps 710 mmHg 43%
    23:00 +28°C° 0 mm 3 mps 710 mmHg 44%

    14 December, Saturday

    Time Temperature Precipitation Wind Pressure Humidity
    00:00 +28°C° 0 mm 3 mps 710 mmHg 46%
    01:00 +27°C° 0 mm 2 mps 710 mmHg 47%
    02:00 +27°C° 0 mm 1 mps 710 mmHg 49%
    03:00 +26°C° 0 mm 2 mps 709 mmHg 50%
    04:00 +26°C° 0 mm 2 mps 709 mmHg 51%
    05:00 +25°C° 0 mm 2 mps 709 mmHg 52%
    06:00 +26°C° 0 mm 2 mps 710 mmHg 49%
    07:00 +28°C° 0 mm 3 mps 710 mmHg 45%
    08:00 +29°C° 0 mm 3 mps 710 mmHg 42%
    09:00 +30°C° 0 mm 4 mps 710 mmHg 39%
    10:00 +33°C° 0 mm 4 mps 711 mmHg 37%
    11:00 +34°C° 0 mm 4 mps 711 mmHg 34%
    12:00 +35°C° 0 mm 4 mps 710 mmHg 32%
    13:00 +36°C° 0 mm 5 mps 709 mmHg 31%
    14:00 +37°C° 0 mm 5 mps 709 mmHg 30%
    15:00 +37°C° 0 mm 5 mps 708 mmHg 29%
    16:00 +38°C° 0 mm 4 mps 708 mmHg 28%
    17:00 +38°C° 0 mm 4 mps 708 mmHg 27%
    18:00 +37°C° 0.1 mm 4 mps 708 mmHg 31%
    19:00 +36°C° 0.1 mm 3 mps 709 mmHg 36%
    20:00 +35°C° 0.1 mm 3 mps 710 mmHg 40%
    21:00 +33°C° 1.5 mm 3 mps 710 mmHg 49%
    22:00 +31°C° 1.5 mm 2 mps 710 mmHg 57%
    23:00 +30°C° 1.5 mm 2 mps 711 mmHg 66%

    15 December, Sunday

    Time Temperature Precipitation Wind Pressure Humidity
    00:00 +29°C° 0.4 mm 2 mps 711 mmHg 68%
    01:00 +28°C° 0.4 mm 2 mps 710 mmHg 70%
    02:00 +28°C° 0.4 mm 2 mps 710 mmHg 73%
    03:00 +27°C° 0.6 mm 3 mps 711 mmHg 76%
    04:00 +26°C° 0.6 mm 3 mps 712 mmHg 79%
    05:00 +25°C° 0.6 mm 4 mps 712 mmHg 81%
    06:00 +25°C° 1.3 mm 4 mps 713 mmHg 78%
    07:00 +25°C° 1.3 mm 4 mps 714 mmHg 75%
    08:00 +25°C° 1.3 mm 4 mps 715 mmHg 72%
    09:00 +25°C° 0.2 mm 4 mps 715 mmHg 69%
    10:00 +25°C° 0.2 mm 3 mps 715 mmHg 66%
    11:00 +26°C° 0.2 mm 3 mps 716 mmHg 63%
    12:00 +26°C° 0 mm 3 mps 715 mmHg 61%
    13:00 +26°C° 0 mm 2 mps 715 mmHg 58%
    14:00 +27°C° 0 mm 2 mps 714 mmHg 56%
    15:00 +27°C° 0 mm 2 mps 714 mmHg 53%
    16:00 +28°C° 0 mm 2 mps 713 mmHg 50%
    17:00 +29°C° 0 mm 2 mps 713 mmHg 47%
    18:00 +28°C° 0 mm 2 mps 713 mmHg 48%
    19:00 +28°C° 0 mm 2 mps 713 mmHg 49%
    20:00 +27°C° 0 mm 2 mps 714 mmHg 51%
    21:00 +27°C° 0 mm 2 mps 714 mmHg 51%
    22:00 +27°C° 0 mm 1 mps 714 mmHg 51%
    23:00 +26°C° 0 mm 1 mps 715 mmHg 51%
    Show more